[[{"header":{"parameterUnit":"m.s-1","parameterCategory":1,"la1":30.2991,"la2":30.254,"lo1":-89.0895,"lo2":-89.0444,"dy":0.0017,"dx":0.0017,"nx":28,"ny":28,"refTime":"2023-11-20T03:00:00:Z","depth":0,"parameterNumber":2,"parameterNumberName":"U-component_of_WINDS"},"data":[0,0,0,0,0,0,0,0,0,0,0,0,0,0,0,0,0,0,0,0,0,0,0,0,0,0,0,0,0,0,0,0,0,0,0,0,0,0,0,0,0,0,0,0,0,0,0,0,0,0,0,0,0,0,0,0,0,0,-1.4657,-1.466,0,-1.4943,-1.4947,-1.495,-1.5098,-1.5098,-1.5099,-1.5099,-1.5404,-1.5412,-1.542,0,0,0,0,0,0,0,0,0,0,0,0,0,-1.4251,-1.4258,-1.4657,-1.466,-1.4664,-1.4943,-1.4947,-1.4951,-1.5098,-1.5098,-1.5099,-1.5099,-1.5402,-1.5411,-1.5421,0,0,0,0,0,0,0,0,0,0,0,0,0,-1.4472,-1.426,-1.4656,-1.4771,-1.4784,-1.4942,-1.4947,-1.4952,-1.5098,-1.5098,-1.5099,-1.5099,-1.5399,-1.541,-1.5422,-1.5491,0,0,-1.5459,-1.5464,0,0,0,0,0,0,0,0,-1.4459,-1.4486,-1.475,-1.4763,-1.4778,-1.4985,-1.4916,-1.5133,-1.5098,-1.4979,-1.5099,-1.5099,-1.5265,-1.5288,-1.5342,-1.5506,-1.5519,-1.546,-1.5467,-1.5472,-1.5475,0,0,0,0,0,0,0,-1.4443,-1.4475,-1.4771,-1.4754,-1.4771,-1.4813,-1.4844,-1.4958,-1.5118,-1.499,-1.5001,-1.5032,-1.5273,-1.533,-1.535,-1.5523,-1.5459,-1.547,-1.5477,-1.5482,-1.5763,-1.5763,0,0,0,0,0,0,-1.4408,-1.4461,-1.4762,-1.4779,-1.4615,-1.482,-1.4855,-1.4919,-1.5117,-1.5147,-1.5032,-1.5038,-1.5309,-1.5336,-1.5362,-1.5458,-1.5472,-1.5483,-1.549,-1.5762,-1.5763,-1.5763,0,0,0,0,0,0,-1.4399,-1.4433,-1.475,-1.4623,-1.4667,-1.4826,-1.4897,-1.4924,-1.4981,-1.5149,-1.5179,-1.5059,-1.5311,-1.5345,-1.5458,-1.547,-1.5489,-1.55,-1.5762,-1.5762,-1.5763,-1.5649,0,0,0,0,0,0,-1.4386,-1.4429,-1.4453,-1.4623,-1.4673,-1.4837,-1.4897,-1.493,-1.5,-1.5011,-1.5183,-1.5212,-1.5313,-1.5439,-1.547,-1.5487,-1.5509,-1.5762,-1.5762,-1.5763,-1.5652,-1.5645,-1.5639,0,0,0,0,0,-1.4371,-1.4412,-1.4454,-1.4489,-1.4706,-1.4837,-1.4866,-1.4979,-1.5,-1.5029,-1.5137,-1.5206,-1.5464,-1.5449,-1.5485,-1.5506,-1.5762,-1.5762,-1.5763,-1.5655,-1.5646,-1.5639,0,0,0,0,0,0,-1.4244,-1.4436,-1.4485,-1.4581,-1.4691,-1.4862,-1.4901,-1.4966,-1.5076,-1.5082,-1.5221,-1.5259,-1.536,-1.5445,-1.5426,-1.5586,-1.562,-1.5628,-1.5526,-1.5519,-1.5513,-1.5491,-1.5519,0,0,0,0,0,-1.4226,-1.4312,-1.4478,-1.4547,-1.4599,-1.474,-1.4801,-1.4878,-1.5,-1.5048,-1.5165,-1.5284,-1.5393,-1.5461,-1.557,-1.5665,-1.5707,-1.5698,-1.5691,-1.5685,-1.5691,-1.5751,-1.575,-1.5765,-1.5765,-1.5765,0,0,-1.4193,-1.4308,-1.4355,-1.4524,-1.4618,-1.4708,-1.4778,-1.487,-1.494,-1.5064,-1.5177,-1.5267,-1.541,-1.5514,-1.5567,-1.5589,-1.5696,-1.5686,-1.568,-1.5689,-1.5751,-1.575,-1.5748,-1.5765,-1.5765,-1.5765,0,0,-1.4176,-1.4271,-1.4339,-1.4432,-1.4573,-1.4667,-1.4683,-1.4845,-1.4908,-1.5023,-1.5118,-1.5206,-1.5388,-1.5486,-1.556,-1.5583,-1.5652,-1.5615,-1.5581,-1.5638,-1.5637,-1.5637,-1.5647,-1.5648,-1.562,-1.5619,-1.5619,0,-1.4117,-1.4252,-1.4367,-1.4453,-1.4527,-1.464,-1.4713,-1.4799,-1.497,-1.502,-1.5041,-1.5273,-1.5378,-1.5508,-1.5513,-1.5569,-1.5596,-1.5596,-1.5627,-1.5628,-1.5629,-1.5641,-1.5644,-1.5614,-1.5615,-1.5615,-1.5616,0,-1.4173,-1.4265,-1.4305,-1.4462,-1.4541,-1.4619,-1.4751,-1.4818,-1.4889,-1.4981,-1.51,-1.5228,-1.5366,-1.5403,-1.5475,-1.5545,-1.5555,-1.5599,-1.5637,-1.562,-1.5634,-1.5639,-1.5606,-1.5608,-1.561,-1.5611,0,0,-1.4083,-1.4304,-1.4316,-1.439,-1.4555,-1.4631,-1.4718,-1.4848,-1.4903,-1.5019,-1.5097,-1.525,-1.5293,-1.5376,-1.5461,-1.5511,-1.5523,-1.5551,-1.5557,-1.5542,-1.5612,-1.5577,-1.558,-1.557,-1.5571,-1.5572,-1.5601,0,-1.4091,-1.4245,-1.4352,-1.4467,-1.4556,-1.4666,-1.4743,-1.4855,-1.4944,-1.5037,-1.5139,-1.5245,-1.5293,-1.5344,-1.5399,-1.5509,-1.5539,-1.5509,-1.5649,-1.5652,-1.5609,-1.5587,-1.555,-1.557,-1.5607,-1.5608,-1.5608,0,-1.4119,-1.4226,-1.4348,-1.4505,-1.4547,-1.4612,-1.4742,-1.4827,-1.4959,-1.5022,-1.5115,-1.5201,-1.5303,-1.5331,-1.5475,-1.5452,-1.5516,-1.558,-1.5584,-1.5601,-1.5629,-1.5605,-1.5579,-1.5582,-1.5617,-1.5616,-1.5616,0,-1.4042,-1.4218,-1.4314,-1.4374,-1.4559,-1.4603,-1.4683,-1.4814,-1.4886,-1.5002,-1.5051,-1.5179,-1.5248,-1.5347,-1.5468,-1.5477,-1.5601,-1.5638,-1.5659,-1.5656,-1.568,-1.5677,-1.5664,-1.572,-1.572,-1.572,-1.5719,0,-1.4039,-1.4109,-1.4282,-1.4341,-1.4425,-1.4551,-1.4633,-1.4723,-1.4839,-1.4922,-1.5027,-1.5103,-1.5257,-1.5354,-1.545,-1.5556,-1.5587,-1.5643,-1.5668,-1.5634,-1.5627,-1.5678,-1.568,-1.5721,-1.572,-1.572,-1.572,0,-1.3966,-1.4084,-1.4196,-1.4361,-1.4405,-1.446,-1.4605,-1.4669,-1.4765,-1.4868,-1.4901,-1.5053,-1.5173,-1.5302,-1.5467,-1.5531,-1.5633,-1.5668,-1.5587,-1.5601,-1.5615,-1.5612,-1.5635,-1.5646,-1.5692,-1.5691,-1.5691,0,-1.3955,-1.4012,-1.4183,-1.4243,-1.4319,-1.4416,-1.449,-1.4618,-1.4691,-1.4846,-1.4893,-1.502,-1.5128,-1.5315,-1.5444,-1.5571,-1.5611,-1.561,-1.5631,-1.5595,-1.5612,-1.5607,-1.5615,-1.5603,-1.5602,-1.5601,-1.5601,0,-1.3925,-1.3981,-1.408,-1.4201,-1.4285,-1.4388,-1.4495,-1.454,-1.4691,-1.4769,-1.489,-1.4973,-1.514,-1.5267,-1.541,-1.5499,-1.5577,-1.5593,-1.5605,-1.5571,-1.5522,-1.555,-1.557,-1.5592,-1.5593,-1.5594,-1.5594,-1.5594,-1.3885,-1.3941,-1.4069,-1.4178,-1.4271,-1.4369,-1.4438,-1.4542,-1.4643,-1.4786,-1.4857,-1.4979,-1.5115,-1.5314,-1.5401,-1.5502,-1.5526,-1.5542,-1.5547,-1.5549,-1.5541,-1.5505,-1.5529,-1.5529,-1.553,-1.553,-1.553,0,-1.386,-1.3948,-1.4047,-1.4191,-1.4278,-1.4339,-1.4462,-1.4532,-1.4636,-1.4753,-1.4856,-1.4998,-1.5122,-1.526,-1.5394,-1.5448,-1.5487,-1.5479,-1.5477,-1.5497,-1.5511,-1.5488,-1.5445,-1.5445,-1.5445,-1.5445,-1.5445,-1.5445,-1.3857,-1.3955,-1.4027,-1.4175,-1.4265,-1.4381,-1.4446,-1.4539,-1.4633,-1.4785,-1.4886,-1.4974,-1.5102,-1.5246,-1.5364,-1.5403,-1.5448,-1.5429,-1.5478,-1.5488,-1.5495,-1.5502,-1.5481,-1.5437,-1.5437,-1.5456,-1.5456,-1.5456]},{"header":{"parameterUnit":"m.s-1","parameterCategory":1,"la1":30.2991,"la2":30.254,"lo1":-89.0895,"lo2":-89.0444,"dy":0.0017,"dx":0.0017,"nx":28,"ny":28,"refTime":"2023-11-20T03:00:00:Z","depth":0,"parameterNumber":3,"parameterNumberName":"V-component_of_WINDS"},"data":[0,0,0,0,0,0,0,0,0,0,0,0,0,0,0,0,0,0,0,0,0,0,0,0,0,0,0,0,0,0,0,0,0,0,0,0,0,0,0,0,0,0,0,0,0,0,0,0,0,0,0,0,0,0,0,0,0,0,3.6653,3.6656,0,3.6928,3.6931,3.6934,3.7037,3.7036,3.7035,3.7034,3.7326,3.7334,3.7343,0,0,0,0,0,0,0,0,0,0,0,0,0,3.6228,3.6235,3.6653,3.6656,3.666,3.6928,3.6931,3.6935,3.7037,3.7036,3.7035,3.7034,3.7323,3.7333,3.7344,0,0,0,0,0,0,0,0,0,0,0,0,0,3.6448,3.6237,3.6652,3.6743,3.6753,3.6927,3.6932,3.6936,3.7037,3.7036,3.7035,3.7033,3.732,3.7332,3.7345,3.7452,0,0,3.7385,3.739,0,0,0,0,0,0,0,0,3.6436,3.6464,3.6726,3.6737,3.6749,3.6947,3.6889,3.7109,3.7038,3.693,3.7034,3.7033,3.7202,3.7224,3.7279,3.7465,3.7478,3.7386,3.7394,3.7399,3.7403,0,0,0,0,0,0,0,3.642,3.6453,3.6762,3.673,3.6744,3.6773,3.6803,3.6931,3.707,3.6939,3.6947,3.6978,3.7208,3.7266,3.7287,3.7482,3.7385,3.7397,3.7405,3.741,3.7776,3.7778,0,0,0,0,0,0,3.6388,3.6439,3.6753,3.677,3.6586,3.6782,3.6815,3.6885,3.7069,3.7096,3.6979,3.6982,3.7245,3.7271,3.7297,3.7438,3.7399,3.7411,3.7418,3.7774,3.7776,3.7778,0,0,0,0,0,0,3.6379,3.6415,3.6742,3.6607,3.6651,3.6791,3.6868,3.6891,3.6949,3.7099,3.7125,3.7012,3.7245,3.7279,3.7413,3.7449,3.7417,3.7429,3.7771,3.7774,3.7777,3.7717,0,0,0,0,0,0,3.6366,3.6411,3.645,3.6607,3.6658,3.685,3.687,3.6897,3.697,3.6977,3.7137,3.7163,3.7246,3.7393,3.7426,3.7466,3.7439,3.7769,3.7773,3.7776,3.7716,3.7717,3.7718,0,0,0,0,0,3.6351,3.6424,3.6452,3.6489,3.6709,3.6851,3.6881,3.6973,3.6972,3.7015,3.7112,3.7158,3.7439,3.7406,3.7444,3.7488,3.7767,3.7772,3.7776,3.7716,3.7717,3.7718,0,0,0,0,0,0,3.627,3.6446,3.6479,3.6604,3.6711,3.6868,3.6924,3.697,3.7083,3.7085,3.7197,3.7233,3.7359,3.7437,3.7397,3.7604,3.7607,3.7619,3.7548,3.7551,3.7551,3.7531,3.7449,0,0,0,0,0,3.6266,3.6364,3.6513,3.661,3.6662,3.6783,3.6849,3.691,3.7028,3.7075,3.7181,3.7297,3.7412,3.7485,3.7599,3.7728,3.7767,3.7778,3.7778,3.7778,3.7789,3.7867,3.7875,3.7793,3.7793,3.7793,0,0,3.6261,3.6369,3.6424,3.6596,3.6687,3.679,3.6821,3.6928,3.7006,3.7093,3.7225,3.7307,3.7444,3.7576,3.764,3.7646,3.782,3.7784,3.7783,3.7794,3.7872,3.788,3.7887,3.7796,3.7795,3.7795,0,0,3.6303,3.6393,3.6484,3.6574,3.671,3.6791,3.6813,3.6964,3.7021,3.7155,3.7223,3.732,3.7515,3.761,3.7684,3.7766,3.7814,3.78,3.7806,3.7881,3.7887,3.7894,3.7926,3.7936,3.7809,3.7809,3.7809,0,3.628,3.6433,3.6526,3.663,3.6706,3.6785,3.6882,3.6966,3.7133,3.7186,3.7189,3.7437,3.7534,3.7692,3.7712,3.7768,3.7801,3.7783,3.7878,3.7886,3.7893,3.7926,3.7937,3.7806,3.7807,3.7807,3.7807,0,3.64,3.6506,3.6564,3.6721,3.6804,3.6903,3.7015,3.7088,3.7143,3.7225,3.7363,3.7483,3.7624,3.7666,3.7721,3.7834,3.7833,3.7855,3.7861,3.7897,3.793,3.7942,3.7803,3.7804,3.7805,3.7805,0,0,3.64,3.6607,3.6627,3.6701,3.6858,3.6944,3.7049,3.7184,3.7246,3.736,3.7454,3.7618,3.764,3.7724,3.7792,3.7857,3.7919,3.7873,3.7878,3.788,3.8054,3.8038,3.805,3.795,3.7953,3.7955,3.8044,0,3.6465,3.6652,3.674,3.689,3.6992,3.707,3.7163,3.7271,3.7351,3.7452,3.7543,3.7658,3.7677,3.7729,3.7797,3.7896,3.7956,3.7891,3.8044,3.8048,3.8009,3.8067,3.805,3.8128,3.8057,3.8059,3.8061,0,3.6566,3.6677,3.6836,3.6984,3.703,3.711,3.7244,3.7337,3.7464,3.7519,3.7613,3.7678,3.7797,3.7792,3.796,3.7913,3.7982,3.804,3.8046,3.8066,3.8058,3.8092,3.8154,3.8167,3.8081,3.808,3.8078,0,3.6554,3.6743,3.6864,3.6924,3.7098,3.7154,3.723,3.7355,3.7432,3.755,3.7602,3.7732,3.7804,3.7906,3.8007,3.7994,3.8166,3.8169,3.8219,3.8216,3.8253,3.825,3.833,3.8292,3.8292,3.8291,3.8291,0,3.6619,3.6714,3.6861,3.6935,3.7046,3.7148,3.7256,3.7339,3.745,3.7545,3.7622,3.7711,3.7837,3.7943,3.8023,3.8152,3.8184,3.8234,3.8255,3.8229,3.8223,3.8277,3.8275,3.8295,3.8294,3.8293,3.8293,0,3.6624,3.6725,3.6863,3.7016,3.7057,3.7133,3.7267,3.7345,3.7428,3.7548,3.7583,3.7716,3.7845,3.7955,3.8126,3.818,3.8315,3.8338,3.8271,3.8282,3.8327,3.8322,3.8447,3.847,3.8412,3.8413,3.8413,0,3.666,3.6735,3.6896,3.6964,3.7038,3.7146,3.7225,3.733,3.7409,3.7561,3.7621,3.7755,3.7868,3.8072,3.8187,3.832,3.8349,3.8383,3.8369,3.8342,3.8354,3.8349,3.8359,3.8384,3.8385,3.8385,3.8385,0,3.6715,3.6762,3.6869,3.6996,3.7087,3.7192,3.73,3.7353,3.7478,3.7565,3.7696,3.7783,3.7957,3.8092,3.8236,3.832,3.8376,3.8388,3.8407,3.8383,3.8342,3.8368,3.8276,3.8385,3.8385,3.8385,3.8385,3.8385,3.6739,3.6811,3.6936,3.7055,3.7146,3.7246,3.7327,3.7421,3.7531,3.7679,3.7735,3.7871,3.8001,3.82,3.8284,3.8395,3.8404,3.843,3.8438,3.8443,3.8441,3.8321,3.8422,3.8422,3.8422,3.8422,3.8423,0,3.6801,3.6885,3.6993,3.7141,3.7235,3.7275,3.7397,3.7475,3.7592,3.7707,3.7816,3.797,3.8101,3.8226,3.8365,3.843,3.8459,3.8463,3.8461,3.848,3.8424,3.8395,3.8437,3.8437,3.8437,3.8437,3.8437,3.8437,3.6844,3.6967,3.7029,3.7202,3.7287,3.7417,3.7485,3.7579,3.7671,3.7838,3.7946,3.8025,3.8146,3.8294,3.8418,3.8452,3.8502,3.8499,3.8541,3.8486,3.8484,3.8481,3.8454,3.8508,3.8508,3.8588,3.8589,3.8589]}]]